[[{"header":{"parameterUnit":"m.s-1","parameterCategory":1,"la1":30.2991,"la2":30.254,"lo1":-89.0895,"lo2":-89.0444,"dy":0.0017,"dx":0.0017,"nx":28,"ny":28,"refTime":"2024-09-30T09:00:00:Z","depth":0,"parameterNumber":2,"parameterNumberName":"U-component_of_WINDS"},"data":[0,0,0,0,0,0,0,0,0,0,0,0,0,0,0,0,0,0,0,0,0,0,0,0,0,0,0,0,0,0,0,0,0,0,0,0,0,0,0,0,0,0,0,0,0,0,0,0,0,0,0,0,0,0,0,0,0,0,1.0489,1.0491,0,1.0614,1.0616,1.0617,1.0644,1.0643,1.0642,1.0641,1.0769,1.0773,1.0777,0,0,0,0,0,0,0,0,0,0,0,0,0,1.0272,1.0276,1.0489,1.0491,1.0492,1.0614,1.0616,1.0618,1.0644,1.0643,1.0642,1.0641,1.0768,1.0773,1.0778,0,0,0,0,0,0,0,0,0,0,0,0,0,1.0379,1.0278,1.0489,1.052,1.0524,1.0614,1.0616,1.0618,1.0644,1.0643,1.0641,1.064,1.0766,1.0772,1.0779,1.0846,0,0,1.0798,1.0801,0,0,0,0,0,0,0,0,1.0373,1.0387,1.0514,1.0518,1.0523,1.0612,1.0586,1.0694,1.0645,1.0599,1.0641,1.064,1.0718,1.0728,1.0755,1.0852,1.0857,1.0799,1.0802,1.0805,1.0807,0,0,0,0,0,0,0,1.0365,1.0382,1.0539,1.0516,1.0521,1.0528,1.0541,1.0607,1.0665,1.0603,1.0605,1.0619,1.072,1.0748,1.0758,1.0859,1.0798,1.0804,1.0808,1.0811,1.1015,1.1017,0,0,0,0,0,0,1.0353,1.0375,1.0535,1.0542,1.0443,1.0533,1.0548,1.0585,1.0664,1.0675,1.062,1.062,1.0738,1.075,1.0762,1.0845,1.0805,1.0811,1.0815,1.1014,1.1016,1.1017,0,0,0,0,0,0,1.0348,1.0367,1.053,1.046,1.0481,1.0538,1.0579,1.0588,1.0616,1.0677,1.0688,1.0639,1.0738,1.0753,1.0824,1.0849,1.0814,1.082,1.1012,1.1014,1.1016,1.101,0,0,0,0,0,0,1.0342,1.0365,1.0391,1.046,1.0484,1.059,1.0581,1.0591,1.0627,1.0628,1.0697,1.0707,1.0738,1.0815,1.0831,1.0858,1.0825,1.101,1.1013,1.1016,1.1008,1.1012,1.1015,0,0,0,0,0,1.0334,1.0385,1.0392,1.0411,1.0519,1.0591,1.0605,1.0639,1.0629,1.0656,1.0695,1.0705,1.0844,1.0822,1.084,1.0869,1.1008,1.1012,1.1015,1.1007,1.1011,1.1015,0,0,0,0,0,0,1.0317,1.0394,1.0404,1.0478,1.0528,1.0595,1.063,1.0643,1.0696,1.0695,1.0735,1.075,1.0818,1.0851,1.0824,1.0937,1.0926,1.0933,1.0913,1.0918,1.0921,1.0911,1.083,0,0,0,0,0,1.0322,1.0375,1.044,1.0499,1.0524,1.0572,1.0605,1.0627,1.068,1.0701,1.0745,1.0796,1.0851,1.0887,1.0941,1.1014,1.1028,1.1043,1.1046,1.1049,1.1054,1.1093,1.11,1.1029,1.1029,1.1029,0,0,1.0333,1.0382,1.0413,1.0497,1.0538,1.0591,1.059,1.0647,1.0686,1.071,1.0779,1.0813,1.0872,1.0944,1.0977,1.0973,1.1077,1.1053,1.1055,1.1059,1.1098,1.1104,1.111,1.1031,1.1031,1.1031,0,0,1.038,1.0423,1.0476,1.0517,1.0579,1.0611,1.0624,1.069,1.0713,1.0783,1.0802,1.0849,1.0944,1.0985,1.1018,1.1079,1.109,1.1096,1.1113,1.1151,1.1156,1.1161,1.1181,1.1188,1.1101,1.1101,1.1101,0,1.0386,1.0467,1.0502,1.0558,1.0594,1.0618,1.0671,1.071,1.0786,1.081,1.0804,1.0922,1.0964,1.1045,1.1059,1.1086,1.1101,1.1087,1.1153,1.1158,1.1163,1.1183,1.1191,1.1101,1.1101,1.1101,1.1101,0,1.047,1.0525,1.0561,1.0634,1.0674,1.0728,1.0772,1.0808,1.0826,1.0859,1.0929,1.098,1.1044,1.1065,1.1084,1.1148,1.1143,1.1145,1.1134,1.117,1.1188,1.1196,1.1102,1.1102,1.1101,1.1101,0,0,1.0509,1.06,1.0613,1.0645,1.0715,1.0758,1.0814,1.0876,1.0906,1.0958,1.1004,1.1083,1.1084,1.1122,1.1145,1.1179,1.1222,1.1176,1.1178,1.1181,1.1293,1.129,1.1299,1.123,1.1232,1.1233,1.1288,0,1.0563,1.0662,1.0695,1.0777,1.0828,1.0851,1.0899,1.0947,1.0978,1.1026,1.1061,1.1115,1.1114,1.1137,1.1171,1.1209,1.1244,1.1206,1.1272,1.1274,1.1255,1.1309,1.1306,1.1356,1.1296,1.1297,1.1298,0,1.0638,1.0691,1.0777,1.0839,1.0862,1.0905,1.0964,1.1009,1.1063,1.1084,1.1126,1.1146,1.1204,1.119,1.127,1.1243,1.1272,1.1295,1.1297,1.1303,1.1287,1.1315,1.1373,1.1379,1.131,1.1309,1.1309,0,1.0656,1.0748,1.0812,1.0839,1.0914,1.0943,1.0975,1.1028,1.1063,1.1115,1.1137,1.1196,1.1227,1.1271,1.1307,1.1294,1.1382,1.1372,1.1399,1.1398,1.1416,1.1414,1.1477,1.1437,1.1437,1.1437,1.1437,0,1.0711,1.0763,1.082,1.0859,1.0917,1.0955,1.1012,1.1045,1.1092,1.1137,1.1162,1.1203,1.1249,1.1296,1.1324,1.1385,1.1399,1.1417,1.1423,1.1414,1.1411,1.1432,1.1429,1.1439,1.1439,1.1438,1.1438,0,1.074,1.0781,1.0851,1.0916,1.0933,1.0973,1.1028,1.1066,1.1099,1.1156,1.1171,1.1222,1.1279,1.132,1.1393,1.1412,1.1477,1.1484,1.1458,1.1461,1.1486,1.1482,1.1563,1.1575,1.1529,1.1529,1.1529,0,1.0772,1.0812,1.0881,1.0913,1.0945,1.0997,1.1032,1.1071,1.1107,1.1171,1.1201,1.126,1.1309,1.1399,1.1442,1.1498,1.1506,1.153,1.1514,1.1503,1.1504,1.15,1.1504,1.1532,1.1533,1.1533,1.1533,0,1.0823,1.0841,1.0892,1.0949,1.0991,1.1038,1.1085,1.111,1.1157,1.1196,1.1255,1.1292,1.1367,1.1425,1.1485,1.1518,1.1533,1.1538,1.1547,1.1537,1.1519,1.1527,1.1463,1.1536,1.1535,1.1535,1.1535,1.1535,1.0853,1.089,1.0943,1.0999,1.1038,1.1082,1.112,1.1157,1.1207,1.127,1.1291,1.1351,1.1403,1.1485,1.1519,1.1566,1.1564,1.1578,1.1581,1.1584,1.1582,1.1513,1.1577,1.1577,1.1577,1.1577,1.1577,0,1.0905,1.094,1.0991,1.1056,1.1099,1.111,1.1163,1.1198,1.125,1.1298,1.1345,1.1412,1.1467,1.1515,1.1572,1.1601,1.1609,1.1614,1.1612,1.1619,1.1581,1.1567,1.1607,1.1607,1.1607,1.1607,1.1607,1.1607,1.0936,1.0997,1.1022,1.1102,1.1138,1.1197,1.1226,1.1266,1.1303,1.1376,1.1423,1.1453,1.1501,1.1562,1.1613,1.1625,1.1645,1.1648,1.1662,1.1625,1.1622,1.1618,1.1605,1.1652,1.1652,1.1696,1.1696,1.1696]},{"header":{"parameterUnit":"m.s-1","parameterCategory":1,"la1":30.2991,"la2":30.254,"lo1":-89.0895,"lo2":-89.0444,"dy":0.0017,"dx":0.0017,"nx":28,"ny":28,"refTime":"2024-09-30T09:00:00:Z","depth":0,"parameterNumber":3,"parameterNumberName":"V-component_of_WINDS"},"data":[0,0,0,0,0,0,0,0,0,0,0,0,0,0,0,0,0,0,0,0,0,0,0,0,0,0,0,0,0,0,0,0,0,0,0,0,0,0,0,0,0,0,0,0,0,0,0,0,0,0,0,0,0,0,0,0,0,0,1.3567,1.3567,0,1.3544,1.3544,1.3543,1.3477,1.3476,1.3474,1.3473,1.345,1.3451,1.3452,0,0,0,0,0,0,0,0,0,0,0,0,0,1.3553,1.3554,1.3567,1.3567,1.3567,1.3544,1.3544,1.3543,1.3477,1.3476,1.3474,1.3472,1.345,1.3451,1.3452,0,0,0,0,0,0,0,0,0,0,0,0,0,1.3548,1.3554,1.3567,1.3531,1.3527,1.3544,1.3544,1.3543,1.3478,1.3476,1.3473,1.3471,1.345,1.3451,1.3452,1.3502,0,0,1.3455,1.3456,0,0,0,0,0,0,0,0,1.3548,1.3548,1.3537,1.3533,1.353,1.3511,1.353,1.3529,1.3478,1.3497,1.3473,1.347,1.3472,1.3471,1.3472,1.3501,1.35,1.3455,1.3456,1.3457,1.3457,0,0,0,0,0,0,0,1.3549,1.3549,1.3558,1.3536,1.3532,1.3515,1.3512,1.353,1.3497,1.3495,1.349,1.3488,1.347,1.3471,1.3471,1.35,1.3455,1.3456,1.3457,1.3457,1.3564,1.3566,0,0,0,0,0,0,1.3554,1.355,1.3559,1.3557,1.3534,1.3517,1.3514,1.3519,1.3497,1.3491,1.349,1.3485,1.347,1.347,1.347,1.3524,1.3457,1.3458,1.3458,1.3562,1.3565,1.3567,0,0,0,0,0,0,1.3554,1.3556,1.356,1.3552,1.3551,1.352,1.3527,1.352,1.3521,1.3493,1.3487,1.3497,1.3468,1.3468,1.3493,1.3522,1.3458,1.3459,1.356,1.3563,1.3566,1.3634,0,0,0,0,0,0,1.3554,1.3556,1.3575,1.3553,1.3552,1.3584,1.3528,1.3521,1.3523,1.3516,1.3498,1.3493,1.3467,1.3492,1.3495,1.3522,1.346,1.3557,1.3561,1.3565,1.3629,1.3639,1.3648,0,0,0,0,0,1.3554,1.3596,1.3576,1.3578,1.3575,1.3586,1.3585,1.3554,1.3525,1.3544,1.3525,1.3493,1.3519,1.3495,1.3497,1.3526,1.3555,1.356,1.3565,1.3625,1.3637,1.3648,0,0,0,0,0,0,1.3624,1.3593,1.357,1.3607,1.36,1.3575,1.3597,1.3569,1.357,1.3564,1.3525,1.3522,1.3551,1.3542,1.3516,1.3571,1.3531,1.3537,1.3576,1.3588,1.3597,1.3598,1.3461,0,0,0,0,0,1.3644,1.3655,1.3627,1.3662,1.366,1.3629,1.3633,1.3609,1.36,1.3597,1.358,1.3572,1.3578,1.3583,1.3587,1.3628,1.3621,1.3648,1.3658,1.3666,1.367,1.3687,1.3698,1.3583,1.3583,1.3583,0,0,1.3685,1.3669,1.3679,1.3676,1.3667,1.3679,1.3627,1.3643,1.365,1.3599,1.362,1.3608,1.3597,1.3629,1.3642,1.3622,1.37,1.3672,1.3678,1.3678,1.3693,1.3704,1.3714,1.3586,1.3586,1.3585,0,0,1.3764,1.3755,1.3781,1.3773,1.3759,1.3739,1.3745,1.3724,1.3713,1.3734,1.3695,1.3704,1.3716,1.3708,1.3706,1.378,1.3749,1.3782,1.3831,1.3848,1.3857,1.3864,1.3887,1.3897,1.3787,1.3788,1.3788,0,1.3816,1.3832,1.3798,1.3815,1.3814,1.3767,1.3792,1.3786,1.3775,1.3775,1.3752,1.3763,1.3753,1.3781,1.3798,1.3799,1.3803,1.3783,1.3858,1.3866,1.3872,1.3894,1.3903,1.3791,1.3791,1.3791,1.379,0,1.3896,1.3907,1.393,1.3919,1.392,1.3942,1.391,1.3915,1.3891,1.3873,1.3893,1.3878,1.3877,1.3882,1.386,1.3906,1.3893,1.3865,1.3824,1.3888,1.3907,1.3915,1.3797,1.3796,1.3794,1.3793,0,0,1.4019,1.3987,1.3995,1.3988,1.3969,1.3977,1.3995,1.3993,1.3997,1.3991,1.4004,1.4014,1.3986,1.3984,1.396,1.3975,1.403,1.3944,1.3943,1.3958,1.4076,1.4095,1.4106,1.4011,1.4012,1.4013,1.4076,0,1.4091,1.4119,1.4088,1.4123,1.4131,1.4086,1.4101,1.4091,1.4073,1.4078,1.4059,1.4065,1.403,1.4027,1.4041,1.4021,1.4053,1.4016,1.402,1.402,1.4021,1.4116,1.4138,1.4197,1.4084,1.4085,1.4086,0,1.418,1.4175,1.421,1.4186,1.4188,1.4203,1.4196,1.4201,1.4188,1.4174,1.417,1.414,1.4155,1.4116,1.4134,1.411,1.4109,1.41,1.4101,1.4098,1.4055,1.4113,1.4216,1.4224,1.4098,1.4097,1.4096,0,1.4261,1.4265,1.4285,1.4281,1.4254,1.4264,1.4254,1.4238,1.4238,1.4232,1.4231,1.4228,1.4226,1.4224,1.4194,1.4169,1.4214,1.4174,1.4201,1.4202,1.4211,1.4211,1.4313,1.4216,1.4216,1.4216,1.4216,0,1.4344,1.4366,1.4321,1.4333,1.4356,1.432,1.4343,1.4328,1.4314,1.4322,1.4284,1.4291,1.4252,1.4256,1.4233,1.4249,1.4249,1.4237,1.423,1.4239,1.424,1.4237,1.4231,1.4218,1.4218,1.4217,1.4217,0,1.4439,1.441,1.4428,1.44,1.4394,1.4411,1.4387,1.4397,1.4376,1.4386,1.4387,1.4355,1.4356,1.4326,1.4323,1.4307,1.4333,1.432,1.4337,1.4332,1.4359,1.4356,1.4461,1.4471,1.4371,1.4372,1.4373,0,1.4492,1.4507,1.448,1.4482,1.4473,1.4477,1.4475,1.444,1.444,1.4424,1.4435,1.4433,1.443,1.4434,1.441,1.4407,1.4391,1.4428,1.4391,1.4398,1.4388,1.4386,1.4386,1.4436,1.4437,1.4438,1.4439,0,1.4588,1.4572,1.4571,1.4565,1.4564,1.4557,1.4548,1.4552,1.4513,1.4515,1.4515,1.4513,1.4507,1.4505,1.4497,1.4485,1.4454,1.4451,1.4456,1.4464,1.4472,1.4465,1.4355,1.4448,1.4447,1.4447,1.4446,1.4446,1.4661,1.4671,1.4653,1.4653,1.4642,1.4634,1.464,1.462,1.4619,1.4612,1.4591,1.4594,1.4578,1.4562,1.4553,1.4554,1.4536,1.4545,1.4547,1.4549,1.4553,1.4474,1.4553,1.4553,1.4553,1.4552,1.4552,0,1.4752,1.4738,1.4738,1.4725,1.4724,1.4696,1.4684,1.4685,1.4688,1.4675,1.4672,1.4671,1.4668,1.4643,1.4637,1.4643,1.4628,1.4642,1.464,1.4637,1.4571,1.4565,1.4653,1.4653,1.4653,1.4653,1.4653,1.4653,1.48,1.4814,1.4796,1.4805,1.479,1.4792,1.4787,1.4779,1.4768,1.4768,1.4765,1.4749,1.473,1.4722,1.4717,1.471,1.4708,1.4726,1.4714,1.4652,1.4642,1.4633,1.4627,1.4727,1.4727,1.4779,1.478,1.478]}]]